TimeCST,TemperatureF,Dew PointF,Humidity,Sea Level PressureIn,VisibilityMPH,Wind Direction,Wind SpeedMPH,Gust SpeedMPH,PrecipitationIn,Events,Conditions,WindDirDegrees,DateUTC
12:56 AM,35.1,33.1,92,30.05,5.0,ESE,6.9,-,N/A,,Clear,110,2012-11-09 06:56:00
1:56 AM,36.0,34.0,93,30.04,5.0,Calm,Calm,-,N/A,,Overcast,0,2012-11-09 07:56:00
2:56 AM,37.0,35.1,93,30.04,4.0,Calm,Calm,-,N/A,,Overcast,0,2012-11-09 08:56:00
3:56 AM,35.1,33.1,92,30.04,4.0,East,3.5,-,N/A,,Clear,100,2012-11-09 09:56:00
4:56 AM,35.1,34.0,96,30.03,4.0,ESE,3.5,-,N/A,,Mostly Cloudy,110,2012-11-09 10:56:00
5:56 AM,33.1,32.0,96,30.05,3.0,Calm,Calm,-,N/A,,Clear,0,2012-11-09 11:56:00
6:46 AM,33.8,33.8,100,30.04,2.5,Calm,Calm,-,N/A,,Mostly Cloudy,0,2012-11-09 12:46:00
6:56 AM,34.0,32.0,92,30.04,2.0,ESE,3.5,-,N/A,,Overcast,120,2012-11-09 12:56:00
7:56 AM,37.0,35.1,93,30.05,2.0,Calm,Calm,-,N/A,,Overcast,0,2012-11-09 13:56:00
8:56 AM,39.0,37.0,93,30.07,3.0,SE,3.5,-,N/A,,Overcast,130,2012-11-09 14:56:00
9:56 AM,41.0,37.9,89,30.05,3.0,ESE,4.6,-,N/A,,Overcast,110,2012-11-09 15:56:00
10:56 AM,45.0,37.9,76,30.04,4.0,East,4.6,-,N/A,,Haze,80,2012-11-09 16:56:00
11:56 AM,46.9,39.0,74,30.01,5.0,East,5.8,-,N/A,,Haze,80,2012-11-09 17:56:00
12:56 PM,48.0,39.0,71,29.99,5.0,East,9.2,-,N/A,,Haze,80,2012-11-09 18:56:00
1:56 PM,50.0,39.9,68,29.97,5.0,ENE,11.5,-,N/A,,Haze,70,2012-11-09 19:56:00
2:56 PM,48.9,39.9,71,29.97,5.0,NE,9.2,-,N/A,,Haze,50,2012-11-09 20:56:00
3:56 PM,48.0,39.9,74,29.96,5.0,ENE,9.2,-,N/A,,Haze,70,2012-11-09 21:56:00
4:56 PM,48.0,39.9,74,29.97,6.0,East,9.2,-,N/A,,Haze,80,2012-11-09 22:56:00
5:56 PM,48.0,39.9,74,29.99,6.0,East,10.4,-,N/A,,Haze,90,2012-11-09 23:56:00
6:56 PM,48.0,41.0,77,30.00,5.0,East,8.1,-,N/A,,Haze,80,2012-11-10 00:56:00
7:56 PM,48.0,39.9,74,30.00,6.0,East,10.4,-,N/A,,Haze,80,2012-11-10 01:56:00
8:56 PM,48.0,41.0,77,29.99,5.0,East,10.4,-,N/A,,Haze,80,2012-11-10 02:56:00
9:56 PM,46.9,42.1,83,30.01,4.0,East,9.2,-,N/A,,Haze,80,2012-11-10 03:56:00
10:56 PM,46.9,42.1,83,30.00,4.0,East,8.1,-,N/A,,Haze,90,2012-11-10 04:56:00
11:56 PM,46.9,42.1,83,29.98,4.0,East,12.7,-,N/A,,Haze,80,2012-11-10 05:56:00